This is the latest recevied weather packets stored in our database for station/object N4DWK. If no packets are shown the sender has not sent any weather packets the latest 10 day(s).
| Time | Temp. | Humidity | Pressure | Rain* | Wind** | Luminosity | Snow |
|---|---|---|---|---|---|---|---|
| 1777640405 | 12.22° C | 67% | 1016.3 hPa | 0 mm | - | 88 W/m² | - |
| 1777640106 | 11.67° C | 69% | 1016.3 hPa | 0 mm | - | 95 W/m² | - |
| 1777639805 | 11.11° C | 70% | 1016.3 hPa | 0 mm | - | 62 W/m² | - |
| 1777639505 | 10.56° C | 75% | 1016.2 hPa | 0 mm | - | 155 W/m² | - |
| 1777639205 | 10.56° C | 77% | 1016.3 hPa | 0 mm | - | 163 W/m² | - |
| 1777638905 | 10° C | 79% | 1016.4 hPa | 0 mm | - | 46 W/m² | - |
| 1777638605 | 9.44° C | 80% | 1016.5 hPa | 0 mm | - | 46 W/m² | - |
| 1777638305 | 9.44° C | 82% | 1016.5 hPa | 0 mm | - | 47 W/m² | - |
| 1777638004 | 8.89° C | 84% | 1016.5 hPa | 0 mm | - | 44 W/m² | - |
| 1777637704 | 8.33° C | 86% | 1016.5 hPa | 0 mm | - | 44 W/m² | - |
| 1777637406 | 8.33° C | 88% | 1016.4 hPa | 0 mm | - | 42 W/m² | - |
| 1777637105 | 7.78° C | 89% | 1016.4 hPa | 0 mm | - | 42 W/m² | - |
| 1777636805 | 7.78° C | 89% | 1016.4 hPa | 0 mm | - | 40 W/m² | - |
| 1777636506 | 7.22° C | 90% | 1016.5 hPa | 0 mm | - | 44 W/m² | - |
| 1777636206 | 7.22° C | 90% | 1016.6 hPa | 0 mm | - | 40 W/m² | - |
| 1777635905 | 6.67° C | 91% | 1016.6 hPa | 0 mm | - | 39 W/m² | - |
| 1777635605 | 6.67° C | 91% | 1016.5 hPa | 0 mm | - | 39 W/m² | - |
| 1777635305 | 6.67° C | 91% | 1016.4 hPa | 0 mm | - | 37 W/m² | - |
| 1777635005 | 6.11° C | 91% | 1016.5 hPa | 0 mm | - | 37 W/m² | - |
| 1777634705 | 6.11° C | 91% | 1016.6 hPa | 0 mm | - | 37 W/m² | - |
| 1777634405 | 5.56° C | 90% | 1016.4 hPa | 0 mm | - | 33 W/m² | - |
| 1777634105 | 5.56° C | 90% | 1016.2 hPa | 0 mm | - | 33 W/m² | - |
| 1777633805 | 5.56° C | 90% | 1016.1 hPa | 0 mm | - | 33 W/m² | - |
| 1777633505 | 5.56° C | 90% | 1016.2 hPa | 0 mm | - | 30 W/m² | - |
| 1777633205 | 5.56° C | 90% | 1016.3 hPa | 0 mm | - | 28 W/m² | - |
* Rain latest hour (hover to see other rain measurements)
** Current wind speed in m/s (hover to see current wind gust speed)